QPF
0.00 0.00 0.00 0.00 0.01 0.01 0.02 0.03 0.03 0.04 0.04 0.04 0.05 0.06 0.05 0.06 0.08 0.07 0.05 0.04 0.04 0.03 0.02 0.02 0.03 0.04 0.05 0.06 0.06 0.06 0.06 0.06 0.06 0.06 0.08 0.09 0.11 0.15
0.00 0.00 0.00 0.00 0.00 0.01 0.02 0.03 0.04 0.05 0.05 0.05 0.05 0.07 0.08 0.08 0.07 0.05 0.04 0.03 0.03 0.03 0.02 0.01 0.02 0.03 0.03 0.04 0.04 0.05 0.05 0.06 0.07 0.08 0.09 0.10 0.11 0.12
0.00 0.00 0.00 0.00 0.00 0.00 0.01 0.02 0.03 0.05 0.04 0.04 0.05 0.07 0.10 0.09 0.07 0.04 0.03 0.02 0.02 0.02 0.01 0.01 0.01 0.01 0.01 0.01 0.02 0.02 0.02 0.04 0.05 0.07 0.10 0.13 0.17 0.17
0.01 0.01 0.00 0.00 0.00 0.01 0.02 0.02 0.03 0.04 0.04 0.04 0.05 0.06 0.08 0.09 0.08 0.05 0.04 0.03 0.02 0.02 0.01 0.01 0.01 0.00 0.00 0.01 0.01 0.01 0.02 0.02 0.03 0.05 0.06 0.09 0.14 0.18
0.01 0.01 0.01 0.01 0.01 0.01 0.02 0.02 0.03 0.05 0.05 0.05 0.06 0.08 0.10 0.10 0.10 0.06 0.04 0.02 0.02 0.02 0.01 0.01 0.01 0.00 0.00 0.00 0.00 0.01 0.01 0.02 0.02 0.03 0.04 0.05 0.06 0.08
0.01 0.01 0.01 0.01 0.01 0.01 0.02 0.02 0.03 0.04 0.05 0.04 0.06 0.08 0.10 0.10 0.09 0.07 0.04 0.02 0.02 0.01 0.01 0.01 0.01 0.01 0.00 0.00 0.00 0.01 0.01 0.01 0.02 0.02 0.03 0.03 0.04 0.04
0.02 0.01 0.01 0.01 0.01 0.01 0.02 0.02 0.02 0.02 0.03 0.04 0.04 0.06 0.08 0.08 0.08 0.07 0.05 0.03 0.02 0.01 0.01 0.01 0.01 0.00 0.00 0.00 0.01 0.01 0.01 0.01 0.01 0.02 0.01 0.02 0.02 0.03
0.03 0.02 0.01 0.01 0.01 0.01 0.01 0.01 0.02 0.02 0.02 0.03 0.03 0.04 0.06 0.07 0.07 0.08 0.06 0.04 0.04 0.02 0.01 0.02 0.01 0.01 0.01 0.00 0.00 0.00 0.00 0.01 0.01 0.01 0.01 0.01 0.01 0.01
0.05 0.03 0.02 0.01 0.01 0.01 0.01 0.01 0.02 0.02 0.02 0.02 0.03 0.04 0.05 0.05 0.06 0.07 0.06 0.04 0.04 0.03 0.02 0.02 0.01 0.01 0.00 0.00 0.00 0.00 0.00 0.00 0.00 0.01 0.01 0.01 0.01 0.01
0.07 0.05 0.04 0.02 0.02 0.02 0.02 0.01 0.01 0.01 0.02 0.02 0.03 0.04 0.06 0.06 0.06 0.05 0.05 0.05 0.04 0.04 0.03 0.02 0.01 0.00 0.00 0.00 0.00 0.00 0.00 0.00 0.00 0.00 0.00 0.00 0.00 0.00
0.11 0.10 0.06 0.03 0.03 0.03 0.02 0.02 0.02 0.01 0.02 0.03 0.04 0.05 0.07 0.06 0.05 0.04 0.04 0.05 0.06 0.06 0.03 0.01 0.01 0.00 0.00 0.00 0.00 0.00 0.00 0.00 0.00 0.00 0.00 0.00 0.00 0.00
0.14 0.16 0.12 0.07 0.05 0.04 0.03 0.03 0.02 0.01 0.01 0.02 0.03 0.04 0.05 0.05 0.05 0.04 0.02 0.03 0.04 0.05 0.03 0.01 0.01 0.00 0.00 0.00 0.00 0.00 0.00 0.00 0.00 0.00 0.00 0.00 0.00 0.00
0.17 0.20 0.16 0.12 0.08 0.05 0.04 0.04 0.03 0.02 0.01 0.01 0.02 0.03 0.04 0.04 0.04 0.03 0.03 0.02 0.02 0.02 0.02 0.01 0.01 0.00 0.00 0.00 0.00 0.00 0.00 0.00 0.00 0.00 0.00 0.00 0.00 0.00
0.25 0.25 0.21 0.17 0.11 0.08 0.05 0.05 0.05 0.03 0.02 0.02 0.02 0.03 0.03 0.04 0.05 0.04 0.04 0.03 0.03 0.02 0.01 0.01 0.00 0.00 0.00 0.00 0.00 0.00 0.00 0.00 0.00 0.00 0.00 0.00 0.00 0.00
0.33 0.35 0.31 0.23 0.16 0.11 0.09 0.07 0.05 0.03 0.02 0.02 0.02 0.03 0.03 0.03 0.03 0.03 0.04 0.04 0.04 0.02 0.01 0.01 0.00 0.00 0.00 0.00 0.00 0.00 0.00 0.00 0.00 0.00 0.00 0.00 0.00 0.00
0.38 0.38 0.37 0.31 0.21 0.16 0.12 0.08 0.04 0.03 0.02 0.01 0.02 0.02 0.02 0.02 0.03 0.03 0.02 0.02 0.02 0.02 0.01 0.00 0.00 0.00 0.00 0.00 0.00 0.00 0.00 0.00 0.00 0.00 0.00 0.00 0.00 0.00
0.38 0.37 0.37 0.31 0.23 0.16 0.11 0.08 0.05 0.03 0.02 0.02 0.01 0.01 0.01 0.01 0.01 0.01 0.01 0.01 0.01 0.01 0.01 0.00 0.00 0.00 0.00 0.00 0.00 0.00 0.00 0.00 0.00 0.00 0.00 0.00 0.00 0.00
0.36 0.36 0.34 0.29 0.20 0.13 0.10 0.08 0.05 0.02 0.02 0.01 0.01 0.00 0.01 0.00 0.00 0.00 0.00 0.00 0.00 0.00 0.00 0.00 0.00 0.00 0.00 0.00 0.00 0.00 0.00 0.00 0.00 0.00 0.00 0.00 0.00 0.00
0.32 0.30 0.26 0.24 0.16 0.10 0.08 0.06 0.04 0.02 0.01 0.01 0.01 0.01 0.00 0.00 0.00 0.00 0.00 0.00 0.00 0.00 0.00 0.00 0.00 0.00 0.00 0.00 0.00 0.00 0.00 0.00 0.00 0.00 0.00 0.00 0.00 0.00
0.26 0.24 0.19 0.16 0.12 0.09 0.07 0.05 0.04 0.02 0.01 0.01 0.01 0.01 0.00 0.00 0.00 0.00 0.00 0.00 0.00 0.00 0.00 0.00 0.00 0.00 0.00 0.00 0.00 0.00 0.00 0.00 0.00 0.00 0.00 0.00 0.00 0.00
0.19 0.18 0.14 0.10 0.09 0.06 0.04 0.03 0.03 0.02 0.01 0.01 0.01 0.01 0.00 0.00 0.00 0.00 0.00 0.00 0.00 0.00 0.00 0.00 0.00 0.00 0.00 0.00 0.00 0.00 0.00 0.00 0.00 0.00 0.00 0.00 0.00 0.00
0.12 0.12 0.10 0.07 0.06 0.04 0.02 0.02 0.01 0.01 0.01 0.00 0.01 0.01 0.00 0.00 0.00 0.00 0.00 0.00 0.00 0.00 0.00 0.00 0.00 0.00 0.00 0.00 0.00 0.00 0.00 0.00 0.00 0.00 0.00 0.00 0.00 0.00
0.07 0.06 0.05 0.04 0.03 0.03 0.01 0.01 0.01 0.01 0.00 0.00 0.00 0.00 0.00 0.00 0.00 0.00 0.00 0.00 0.00 0.00 0.00 0.00 0.00 0.00 0.00 0.00 0.00 0.00 0.00 0.00 0.00 0.00 0.00 0.00 0.00 0.00
MSLP
1008.61 1008.79 1008.99 1009.19 1009.34 1009.42 1009.42 1009.34 1009.19 1009.00 1008.81 1008.64 1008.52 1008.48 1008.52 1008.64 1008.80 1009.01 1009.22 1009.42 1009.58 1009.68 1009.73 1009.71 1009.64 1009.51 1009.36 1009.20 1009.06 1008.97 1008.96 1009.04 1009.24 1009.54 1009.94 1010.41 1010.93 1011.47
1008.10 1008.20 1008.34 1008.47 1008.59 1008.66 1008.68 1008.65 1008.57 1008.48 1008.40 1008.36 1008.38 1008.47 1008.63 1008.84 1009.10 1009.37 1009.64 1009.88 1010.06 1010.17 1010.22 1010.19 1010.09 1009.94 1009.75 1009.55 1009.37 1009.24 1009.19 1009.23 1009.39 1009.66 1010.03 1010.49 1011.00 1011.54
1007.61 1007.62 1007.68 1007.74 1007.81 1007.85 1007.87 1007.87 1007.87 1007.87 1007.91 1008.00 1008.16 1008.39 1008.69 1009.03 1009.40 1009.77 1010.11 1010.40 1010.63 1010.78 1010.85 1010.83 1010.74 1010.59 1010.39 1010.18 1009.99 1009.84 1009.76 1009.78 1009.92 1010.16 1010.52 1010.96 1011.46 1011.99
1007.14 1007.07 1007.05 1007.04 1007.05 1007.07 1007.08 1007.10 1007.14 1007.22 1007.36 1007.57 1007.86 1008.23 1008.67 1009.14 1009.63 1010.11 1010.54 1010.92 1011.21 1011.41 1011.52 1011.55 1011.49 1011.37 1011.20 1011.01 1010.83 1010.69 1010.62 1010.63 1010.75 1010.98 1011.32 1011.74 1012.22 1012.73
1006.68 1006.56 1006.47 1006.42 1006.38 1006.35 1006.35 1006.37 1006.44 1006.57 1006.78 1007.08 1007.48 1007.97 1008.53 1009.12 1009.73 1010.31 1010.85 1011.32 1011.69 1011.97 1012.15 1012.25 1012.25 1012.19 1012.08 1011.95 1011.81 1011.70 1011.65 1011.67 1011.79 1012.00 1012.32 1012.71 1013.17 1013.66
1006.23 1006.08 1005.96 1005.87 1005.80 1005.75 1005.72 1005.73 1005.80 1005.95 1006.20 1006.56 1007.04 1007.61 1008.25 1008.95 1009.65 1010.34 1010.97 1011.53 1012.00 1012.37 1012.65 1012.83 1012.93 1012.96 1012.93 1012.87 1012.80 1012.75 1012.73 1012.77 1012.89 1013.10 1013.38 1013.75 1014.17 1014.62
1005.77 1005.63 1005.51 1005.41 1005.33 1005.25 1005.21 1005.20 1005.26 1005.41 1005.66 1006.04 1006.55 1007.16 1007.87 1008.62 1009.40 1010.17 1010.89 1011.54 1012.10 1012.57 1012.95 1013.23 1013.44 1013.58 1013.66 1013.69 1013.71 1013.72 1013.76 1013.83 1013.95 1014.14 1014.40 1014.72 1015.09 1015.50
1005.30 1005.19 1005.11 1005.03 1004.95 1004.87 1004.81 1004.79 1004.83 1004.96 1005.20 1005.57 1006.07 1006.70 1007.42 1008.21 1009.03 1009.84 1010.62 1011.34 1011.99 1012.55 1013.03 1013.43 1013.75 1014.00 1014.20 1014.35 1014.46 1014.55 1014.64 1014.74 1014.88 1015.05 1015.28 1015.55 1015.87 1016.22
1004.81 1004.76 1004.72 1004.69 1004.64 1004.58 1004.52 1004.49 1004.52 1004.63 1004.85 1005.19 1005.67 1006.28 1006.99 1007.78 1008.61 1009.44 1010.26 1011.02 1011.73 1012.36 1012.93 1013.43 1013.86 1014.23 1014.54 1014.80 1015.02 1015.19 1015.34 1015.48 1015.62 1015.78 1015.97 1016.20 1016.46 1016.75
1004.30 1004.32 1004.35 1004.37 1004.37 1004.35 1004.32 1004.30 1004.33 1004.43 1004.64 1004.96 1005.42 1006.00 1006.68 1007.45 1008.25 1009.08 1009.89 1010.67 1011.40 1012.08 1012.71 1013.28 1013.80 1014.28 1014.70 1015.06 1015.38 1015.64 1015.85 1016.03 1016.18 1016.34 1016.49 1016.67 1016.88 1017.12
1003.79 1003.88 1003.98 1004.06 1004.12 1004.16 1004.18 1004.20 1004.26 1004.38 1004.59 1004.91 1005.35 1005.91 1006.56 1007.28 1008.05 1008.84 1009.62 1010.37 1011.10 1011.78 1012.44 1013.06 1013.65 1014.20 1014.71 1015.17 1015.57 1015.91 1016.19 1016.41 1016.59 1016.74 1016.87 1017.02 1017.18 1017.37
1003.31 1003.45 1003.61 1003.76 1003.89 1003.99 1004.08 1004.17 1004.28 1004.45 1004.70 1005.04 1005.49 1006.03 1006.66 1007.34 1008.06 1008.79 1009.51 1010.21 1010.89 1011.55 1012.19 1012.82 1013.44 1014.04 1014.62 1015.15 1015.63 1016.05 1016.39 1016.65 1016.86 1017.02 1017.15 1017.28 1017.41 1017.57
1002.87 1003.05 1003.25 1003.46 1003.65 1003.83 1004.00 1004.17 1004.37 1004.61 1004.93 1005.33 1005.80 1006.36 1006.97 1007.62 1008.28 1008.94 1009.58 1010.21 1010.82 1011.42 1012.02 1012.63 1013.24 1013.87 1014.48 1015.07 1015.61 1016.08 1016.48 1016.80 1017.04 1017.22 1017.36 1017.48 1017.60 1017.74
1002.47 1002.68 1002.91 1003.16 1003.41 1003.66 1003.91 1004.18 1004.48 1004.83 1005.23 1005.71 1006.24 1006.82 1007.44 1008.06 1008.67 1009.26 1009.83 1010.36 1010.88 1011.40 1011.93 1012.49 1013.08 1013.70 1014.32 1014.94 1015.52 1016.05 1016.49 1016.86 1017.14 1017.35 1017.51 1017.64 1017.76 1017.90
1002.12 1002.33 1002.59 1002.87 1003.16 1003.48 1003.81 1004.18 1004.58 1005.04 1005.55 1006.11 1006.72 1007.35 1007.98 1008.59 1009.16 1009.69 1010.17 1010.62 1011.05 1011.48 1011.94 1012.43 1012.98 1013.57 1014.19 1014.81 1015.42 1015.97 1016.45 1016.85 1017.17 1017.40 1017.58 1017.73 1017.86 1018.00
1001.81 1002.03 1002.29 1002.59 1002.92 1003.28 1003.69 1004.14 1004.65 1005.21 1005.82 1006.48 1007.16 1007.84 1008.49 1009.11 1009.65 1010.14 1010.56 1010.93 1011.27 1011.63 1012.01 1012.44 1012.94 1013.49 1014.09 1014.71 1015.31 1015.88 1016.38 1016.80 1017.13 1017.39 1017.58 1017.73 1017.87 1018.01
1001.54 1001.75 1002.02 1002.33 1002.68 1003.08 1003.54 1004.07 1004.65 1005.30 1006.00 1006.74 1007.49 1008.22 1008.91 1009.53 1010.07 1010.53 1010.90 1011.23 1011.52 1011.81 1012.14 1012.53 1012.98 1013.49 1014.06 1014.65 1015.24 1015.79 1016.28 1016.70 1017.03 1017.29 1017.48 1017.63 1017.76 1017.89
1001.28 1001.51 1001.77 1002.09 1002.45 1002.88 1003.38 1003.96 1004.60 1005.31 1006.08 1006.88 1007.68 1008.46 1009.17 1009.81 1010.36 1010.81 1011.17 1011.48 1011.75 1012.02 1012.32 1012.67 1013.09 1013.57 1014.10 1014.66 1015.21 1015.73 1016.19 1016.58 1016.88 1017.11 1017.28 1017.41 1017.52 1017.63
1001.05 1001.28 1001.56 1001.88 1002.25 1002.70 1003.22 1003.82 1004.50 1005.25 1006.06 1006.90 1007.73 1008.54 1009.28 1009.93 1010.50 1010.96 1011.34 1011.65 1011.93 1012.21 1012.51 1012.86 1013.27 1013.72 1014.22 1014.74 1015.24 1015.71 1016.11 1016.44 1016.69 1016.87 1016.99 1017.08 1017.15 1017.22
1000.84 1001.09 1001.37 1001.70 1002.08 1002.54 1003.07 1003.68 1004.38 1005.15 1005.97 1006.82 1007.67 1008.48 1009.24 1009.91 1010.50 1010.99 1011.40 1011.75 1012.07 1012.38 1012.71 1013.08 1013.48 1013.92 1014.39 1014.86 1015.30 1015.69 1016.02 1016.27 1016.45 1016.56 1016.62 1016.65 1016.67 1016.70
1000.65 1000.92 1001.22 1001.55 1001.94 1002.40 1002.94 1003.56 1004.26 1005.02 1005.84 1006.68 1007.52 1008.34 1009.10 1009.78 1010.39 1010.91 1011.37 1011.77 1012.14 1012.51 1012.88 1013.27 1013.69 1014.12 1014.56 1014.97 1015.34 1015.65 1015.89 1016.06 1016.15 1016.18 1016.17 1016.14 1016.11 1016.10
1000.50 1000.78 1001.09 1001.44 1001.84 1002.30 1002.85 1003.46 1004.15 1004.90 1005.70 1006.52 1007.35 1008.14 1008.89 1009.58 1010.20 1010.76 1011.26 1011.71 1012.14 1012.56 1012.98 1013.40 1013.83 1014.26 1014.66 1015.01 1015.32 1015.54 1015.69 1015.76 1015.77 1015.73 1015.65 1015.57 1015.50 1015.46
1000.40 1000.68 1001.00 1001.35 1001.76 1002.24 1002.78 1003.39 1004.07 1004.81 1005.58 1006.38 1007.17 1007.93 1008.66 1009.34 1009.96 1010.54 1011.07 1011.56 1012.04 1012.50 1012.96 1013.41 1013.85 1014.26 1014.62 1014.93 1015.16 1015.30 1015.37 1015.36 1015.29 1015.18 1015.06 1014.95 1014.86 1014.80
Thickness
5686 5688 5690 5692 5694 5694 5694 5693 5690 5689 5690 5692 5694 5696 5695 5695 5694 5694 5694 5694 5695 5695 5694 5694 5695 5697 5699 5701 5704 5707 5710 5713 5715 5717 5718 5718 5718 5718
5679 5680 5683 5687 5689 5690 5690 5690 5690 5687 5686 5688 5689 5690 5689 5688 5687 5687 5686 5686 5686 5686 5686 5686 5687 5689 5691 5693 5696 5699 5703 5706 5708 5711 5712 5713 5713 5713
5669 5673 5676 5680 5682 5685 5686 5686 5686 5686 5684 5685 5685 5684 5682 5681 5679 5678 5677 5677 5676 5676 5677 5678 5679 5681 5682 5685 5687 5690 5693 5696 5699 5702 5704 5705 5705 5705
5659 5663 5668 5672 5675 5678 5680 5682 5683 5683 5682 5680 5680 5678 5676 5674 5672 5670 5668 5667 5667 5666 5668 5668 5670 5672 5674 5676 5678 5680 5683 5686 5689 5691 5693 5695 5695 5694
5649 5654 5659 5663 5667 5671 5674 5676 5678 5680 5679 5678 5676 5673 5671 5668 5665 5662 5660 5658 5658 5657 5657 5658 5660 5662 5663 5666 5668 5671 5673 5675 5678 5679 5681 5682 5683 5683
5638 5644 5650 5655 5660 5664 5668 5671 5672 5673 5674 5674 5672 5669 5666 5663 5660 5656 5651 5650 5649 5648 5647 5648 5649 5651 5653 5656 5658 5660 5661 5664 5666 5667 5668 5670 5670 5671
5625 5633 5640 5648 5654 5658 5662 5665 5667 5668 5669 5669 5667 5664 5661 5658 5655 5651 5647 5643 5640 5639 5639 5638 5639 5640 5642 5644 5647 5648 5650 5652 5654 5655 5656 5657 5658 5658
5611 5620 5629 5637 5645 5651 5656 5660 5663 5664 5665 5665 5664 5662 5659 5656 5651 5647 5642 5639 5634 5631 5632 5629 5630 5631 5632 5634 5635 5638 5639 5641 5642 5643 5644 5645 5646 5646
5596 5606 5617 5627 5634 5641 5647 5652 5656 5660 5663 5663 5661 5660 5657 5654 5649 5642 5639 5636 5633 5628 5626 5622 5621 5621 5622 5623 5625 5628 5630 5631 5632 5633 5634 5634 5635 5635
5581 5592 5603 5613 5622 5629 5636 5641 5647 5652 5656 5658 5659 5658 5656 5651 5647 5642 5636 5629 5625 5622 5622 5616 5613 5613 5614 5614 5616 5618 5620 5621 5623 5624 5624 5625 5625 5625
5568 5580 5590 5601 5611 5618 5625 5631 5637 5642 5647 5650 5651 5651 5648 5645 5641 5635 5629 5624 5618 5614 5614 5612 5607 5605 5605 5605 5607 5609 5611 5613 5614 5615 5616 5616 5616 5616
5557 5568 5579 5590 5599 5607 5614 5622 5628 5633 5637 5638 5639 5639 5638 5636 5635 5633 5629 5623 5616 5610 5609 5607 5603 5602 5597 5597 5598 5600 5603 5604 5606 5607 5608 5608 5608 5608
5547 5557 5568 5579 5587 5596 5605 5614 5621 5625 5628 5629 5629 5629 5628 5627 5626 5625 5624 5622 5616 5611 5609 5606 5600 5599 5598 5593 5592 5593 5595 5597 5599 5599 5600 5601 5601 5602
5540 5549 5559 5568 5577 5585 5595 5604 5610 5615 5618 5620 5620 5620 5620 5618 5617 5616 5616 5614 5614 5612 5608 5606 5601 5598 5595 5591 5588 5588 5589 5591 5592 5593 5593 5594 5594 5594
5534 5541 5550 5558 5566 5577 5587 5594 5601 5607 5609 5611 5611 5611 5611 5611 5609 5608 5607 5606 5604 5604 5604 5604 5602 5598 5596 5591 5587 5586 5585 5586 5588 5588 5587 5588 5588 5588
5527 5533 5541 5550 5559 5570 5578 5587 5595 5600 5603 5604 5603 5601 5601 5601 5601 5601 5600 5599 5595 5592 5595 5599 5600 5597 5592 5590 5587 5584 5584 5583 5583 5583 5583 5582 5583 5583
5523 5528 5536 5545 5554 5564 5572 5580 5587 5591 5593 5594 5595 5594 5594 5593 5592 5592 5592 5592 5589 5586 5586 5588 5591 5592 5592 5588 5583 5581 5580 5580 5581 5580 5578 5577 5577 5577
5520 5526 5534 5542 5552 5561 5568 5574 5579 5584 5586 5588 5589 5588 5587 5586 5584 5584 5585 5585 5583 5581 5581 5582 5584 5583 5580 5578 5581 5578 5578 5577 5577 5576 5575 5573 5571 5572
5519 5525 5533 5541 5550 5558 5563 5569 5573 5577 5581 5583 5582 5582 5582 5581 5580 5578 5578 5578 5577 5576 5577 5579 5580 5579 5575 5572 5574 5578 5576 5574 5573 5571 5570 5569 5568 5568
5520 5526 5534 5541 5548 5555 5560 5564 5569 5572 5574 5576 5576 5577 5577 5577 5575 5575 5574 5574 5573 5572 5572 5574 5576 5577 5575 5572 5572 5573 5575 5573 5570 5567 5565 5564 5562 5562
5521 5528 5534 5541 5547 5553 5558 5563 5566 5568 5570 5572 5572 5573 5573 5573 5573 5573 5572 5571 5571 5571 5570 5571 5574 5576 5574 5571 5569 5569 5570 5571 5570 5566 5562 5557 5554 5552
5523 5530 5536 5541 5546 5552 5557 5561 5564 5566 5568 5570 5570 5571 5572 5572 5572 5571 5571 5571 5570 5571 5570 5570 5570 5570 5569 5567 5566 5565 5565 5566 5565 5563 5561 5559 5552 5547
5527 5533 5537 5542 5547 5552 5556 5560 5563 5565 5567 5569 5570 5571 5572 5572 5572 5571 5571 5571 5570 5569 5568 5565 5565 5565 5566 5565 5563 5561 5561 5559 5557 5555 5554 5555 5552 5550